Terminal Aerodrome Forecast
Issued by NWS

Home | Current Version | Previous Version | Text Only | Print | Product List | Glossary On
Versions: 1 2 3 4 5 6 7 8 9 10 11 12 13 14 15 16 17 18 19 20 21 22 23 24 25 26 27 28 29 30 31 32 33 34 35 36 37 38 39 40 41 42 43 44 45 46 47 48 49 50
000
FTUS41 KBOX 170523
TAFACK
TAF
KACK 170523Z 1706/1806 35016G23KT P6SM BKN025
     FM170900 35015G22KT P6SM SCT020
     FM171600 01010KT P6SM SCT050
     FM180000 24009KT P6SM SKC=

USA.gov is the U.S. government's official web portal to all federal, state and local government web resources and services.